E-ST@R-II (41459 NORAD) Tracking and Keplerian Element Data

This shows tracking and keplerian element data for the satellite.

Feedback or suggestion? Click here.




ElementValue
Catalog41459
NameE-ST@R-II
Epoch Orbit36121
Epoch Day325.06487269
Epoch Year2022
RAAN142.3786
Inclination98.1927
Eccentricity0.0135124
Argument of Perigee96.5626
Mean Anonmoly265.0952
Mean Motion15.17824568
Decay Rate0.00013159
L11 41459U 16025D 22325.06487269 .00013159 00000+0 51478-3 0 9999
L22 41459 98.1927 142.3786 0135124 96.5626 265.0952 15.17824568361211



Live tracking and technical data element details for E-ST@R-II (NORAD 41459). E-ST@R-II can be tracked NOW for your location showing map with azimuth and elevation plus other details from your city location.







IsCatalogInMostPopularTable: catalog: 41459, numindb: 362
Update: records affected: 1



GetName: 41459 E-ST@R-II

Hit Count: updated at: Fri, 02 Dec 2022 12:53:20 GMT